Regional Weather Roundup
Issued by NWS

Home | Current Version | Previous Version | Text Only | Print | Product List | Glossary On
Versions: 1 2 3 4 5 6 7 8 9 10 11 12 13 14 15 16 17 18 19 20 21 22 23 24 25 26 27 28 29 30 31 32 33 34 35 36 37 38 39 40 41 42 43 44 45 46 47 48 49 50
000
ASUS44 KLIX 301411
RWRLA
LOUISIANA WEATHER ROUNDUP
NATIONAL WEATHER SERVICE NEW ORLEANS LA
900 AM CDT TUE JUN 30 2015

NOTE: "FAIR" INDICATES FEW OR NO CLOUDS BELOW 12,000 FEET WITH NO
      SIGNIFICANT WEATHER AND/OR OBSTRUCTIONS TO VISIBILITY.
      SKY/WX - SKY CONDITION AND SIGNIFICANT WEATHER.
      TMP - AIR TEMPERATURE.    DP   - DEWPOINT TEMPERATURE.
      RH  - RELATIVE HUMIDITY.  PRES - PRESSURE.
      HX  - HEAT INDEX.         WCI  - WIND CHILL INDEX.

*  THESE STATIONS ARE NOT NWS OR FAA STATIONS AND ARE NOT UNDER
   NWS QUALITY CONTROL.

LAZ040-048-061>063-065-066-069-301500-
SOUTHEAST LOUISIANA

CITY           SKY/WX    TMP DP  RH WIND       PRES   REMARKS
N.O. AUDUBON     N/A     85  79  83 MISG        N/A  HX  97
N.O. INTL ARPT PTSUNNY   84  75  74 SW12      30.09R
N.O. LAKEFRONT SUNNY     85  75  72 W13       30.09R
N.O. DOWNTOWN* FAIR      86  75  70 SW5       30.10R HX  95
RESERVE*       FAIR      85  77  78 SW7       30.09R HX  95
SLIDELL        MOSUNNY   79  72  79 CALM      30.09R
BATON ROUGE    PTSUNNY   80  75  84 SW6       30.08R
BOOTHVILLE     PTSUNNY   85  77  77 SW10      30.11R HX  95
BELLE CHASSE   PTSUNNY   83  75  77 SW8       30.09R
BOGALUSA*        N/A     79  69  71 W3        30.10R
GALLIANO*      PTSUNNY   87  75  67 MISG      30.09R HX  96
NEW ROADS*     FAIR     N/A N/A N/A CALM      30.08R
GONZALES*      FAIR      81  79  94 CALM      30.07R
HAMMOND*       MOSUNNY   79  70  73 CALM      30.11R
HOUMA*         NOT AVBL
PORT FOURCHON* MOSUNNY   84  75  74 SW7G14    30.10R

$$

LAZ041-044-053-054-301500-
SOUTHWEST LOUISIANA

CITY           SKY/WX    TMP DP  RH WIND       PRES   REMARKS
LAKE CHARLES     N/A     84  78  82 VRB3      30.06S HX  95
LAFAYETTE      CLOUDY    83  77  82 SW7       30.08R
PATTERSON      PTSUNNY   82  75  78 S6        30.09R
SALT POINT       N/A     84  77  79 SW6       30.06R
NEW IBERIA     PTSUNNY   83  78  85 SW8       30.08R
CHENAULT AIRPK PTSUNNY   82  79  89 CALM      30.07R FOG

$$

LAZ027-028-301500-
CENTRAL LOUISIANA

CITY           SKY/WX    TMP DP  RH WIND       PRES   REMARKS
FORT POLK      PTSUNNY   81  76  86 SW9       30.06R
ALEXANDRIA INT PTSUNNY   81  76  84 W8        30.05R
ALEXANDRIA     PTSUNNY   80  75  84 W13       30.07R

$$

LAZ001-002-301500-
NORTHWEST LOUISIANA

CITY           SKY/WX    TMP DP  RH WIND       PRES   REMARKS
SHREVEPORT     PTSUNNY   82  75  79 SW15      30.04R
BARKSDALE AFB  MOSUNNY   82  73  74 W12       30.04R
DTN SHREVEPORT MOSUNNY   82  74  76 SW15      30.04R

$$

LAZ014-016-301500-
NORTHEAST LOUISIANA

CITY           SKY/WX    TMP DP  RH WIND       PRES   REMARKS
MONROE         CLOUDY    82  76  81 W15       30.04R
TALLULAH       NOT AVBL

$$




USA.gov is the U.S. government's official web portal to all federal, state and local government web resources and services.